sat.trackr.live / text

‹ back to catalog

STARLINK-35519

NORAD 65919 · 2025-225K

PAYLOAD ACTIVE UNKNOWN

§ Identity

Operator
Country
US
Launch date
2025-10-08
Launch site
AFWTR
Launch vehicle
Mass (kg)
RCS (m²)

Purposes: comms

External: N2YO · Heavens-Above · Gunter

§ Orbital elements

Epoch: 2026-09-20T11:43:40.089216Z

Period
93.85 min
Inclination
53.1600°
Eccentricity
0.0000932
Mean motion
15.34403393 rev/d
Perigee alt
462.1 km
Apogee alt
463.3 km
Semi-major
6,840.8 km
B*
2.4769e-4
RAAN
337.9529°
Arg perigee
70.6667°
Mean anomaly
289.4437°
Rev number
5,427

§ Raw data

STARLINK-355191 65919U 25225K   26263.48865844  .00008002  00000+0  24769-3 0  99922 65919  53.1600 337.9529 0000932  70.6667 289.4437 15.34403393 54271

JSON: /api/v1/satellites/65919 · /tle

For live sub-satellite position, see the globe view (requires WebGL).

§ Visibility from observer

Set your observer location to see the next 7 days of passes ≥ 10°. The values pass through the URL so the page stays shareable.

No JS? Fill the form by hand. The geolocation button needs JavaScript.